N0PJH Weather Reports


time (UTC)temp
C
wind
direction
speed
KPH
gust
KPH
rain 1hr
cm
rain 24hr
cm
rain mn
cm
humidity
%
barometer
mb
20260906180054 36 213 1.6 4.8 0.00 0.00 0.00 46 1015.3
20260906174558 35 178 1.6 6.4 0.00 0.00 0.00 47 1015.5
20260906173100 35 244 0.0 3.2 0.00 0.00 0.00 48 1015.7
20260906171555 35 0 1.6 6.4 0.00 0.00 0.00 50 1016.0
20260906170053 35 257 1.6 4.8 0.00 0.00 0.00 52 1016.3
20260906164551 34 196 1.6 9.7 0.00 0.00 0.00 51 1016.2
20260906163056 34 51 1.6 6.4 0.00 0.00 0.00 55 1016.3
20260906161554 33 103 1.6 6.4 0.00 0.00 0.00 54 1016.2
20260906160047 33 88 3.2 8.0 0.00 0.00 0.00 56 1016.3
20260906154554 32 72 3.2 11.3 0.00 0.00 0.00 57 1016.1
20260906153054 32 207 1.6 6.4 0.00 0.00 0.00 57 1015.9
20260906151553 32 86 1.6 6.4 0.00 0.00 0.00 58 1016.0
20260906150059 31 187 1.6 6.4 0.00 0.00 0.00 59 1016.0
20260906144557 31 92 1.6 4.8 0.00 0.00 0.00 61 1016.1
20260906143057 30 96 1.6 4.8 0.00 0.00 0.00 62 1016.1
20260906141553 30 91 1.6 12.9 0.00 0.00 0.00 62 1016.1
20260906140052 30 69 1.6 4.8 0.00 0.00 0.00 64 1015.9
20260906134602 29 60 1.6 6.4 0.00 0.00 0.00 65 1015.9
20260906133056 28 81 1.6 4.8 0.00 0.00 0.00 66 1015.7
20260906131554 27 0 0.0 3.2 0.00 0.00 0.00 69 1015.6
20260906130119 27 99 0.0 3.2 0.00 0.00 0.00 71 1015.3
20260906124549 26 0 0.0 3.2 0.00 0.05 0.00 72 1015.1
20260906123100 25 0 0.0 3.2 0.00 0.05 0.00 75 1015.1
20260906121604 25 0 0.0 3.2 0.00 0.05 0.00 75 1014.9
20260906120057 25 0 0.0 3.2 0.00 0.05 0.00 75 1014.9
20260906114555 25 0 0.0 3.2 0.00 0.10 0.00 76 1015.0
20260906113057 25 0 0.0 3.2 0.00 0.10 0.00 77 1014.8
20260906111552 24 0 0.0 3.2 0.00 0.10 0.00 77 1014.7
20260906110047 24 0 0.0 0.0 0.00 0.10 0.00 78 1014.7
20260906104556 24 0 0.0 1.6 0.00 0.10 0.00 78 1014.6
20260906103058 25 0 0.0 0.0 0.00 0.10 0.00 77 1014.6
20260906101553 25 0 0.0 0.0 0.00 0.10 0.00 76 1014.6
20260906100048 25 0 0.0 0.0 0.00 0.10 0.00 76 1014.4
20260906094557 25 0 0.0 0.0 0.00 0.10 0.00 76 1014.3
20260906093059 25 0 0.0 0.0 0.00 0.10 0.00 75 1014.4
20260906091557 25 0 0.0 0.0 0.00 0.10 0.00 75 1014.4
20260906090058 25 0 0.0 0.0 0.00 0.10 0.00 74 1014.2
20260906084552 25 0 0.0 0.0 0.00 0.10 0.00 72 1014.2
20260906083051 26 0 0.0 3.2 0.00 0.10 0.00 72 1013.9
20260906081547 26 0 0.0 1.6 0.00 0.10 0.00 72 1014.0
20260906080057 26 0 0.0 0.0 0.00 0.10 0.00 72 1014.1
20260906074557 26 0 0.0 0.0 0.00 0.10 0.00 72 1014.0
20260906073051 26 0 0.0 0.0 0.00 0.10 0.00 72 1014.1
20260906071546 26 0 0.0 0.0 0.00 0.10 0.00 72 1014.2
20260906070051 26 0 0.0 0.0 0.00 0.10 0.00 70 1014.1
20260906064546 27 0 0.0 0.0 0.00 0.10 0.00 68 1014.2
20260906063057 27 0 0.0 0.0 0.00 0.10 0.00 67 1014.1
20260906061559 27 0 0.0 3.2 0.00 0.10 0.00 66 1014.2
20260906060119 28 0 0.0 3.2 0.00 0.10 0.00 66 1014.3
20260906054556 28 0 0.0 3.2 0.00 0.10 0.00 65 1014.5
20260906053053 28 0 0.0 3.2 0.00 0.10 0.00 65 1014.5
20260906051603 28 0 0.0 3.2 0.00 0.10 0.00 64 1014.5
20260906050104 28 95 0.0 3.2 0.00 0.10 0.00 64 1014.4
20260906044557 28 0 0.0 3.2 0.00 0.10 0.10 65 1014.5
20260906043053 28 87 0.0 3.2 0.00 0.10 0.10 65 1014.5
20260906041552 29 0 0.0 3.2 0.00 0.10 0.10 65 1014.3
20260906040057 29 0 0.0 3.2 0.00 0.10 0.10 64 1014.3
20260906034602 30 0 0.0 3.2 0.00 0.10 0.10 63 1014.3
20260906033054 30 77 0.0 3.2 0.00 0.10 0.10 62 1014.1
20260906031551 30 0 0.0 3.2 0.00 0.10 0.10 62 1014.1
20260906030057 30 0 0.0 3.2 0.00 0.10 0.10 61 1013.9
20260906024553 30 0 0.0 3.2 0.00 0.10 0.10 60 1013.4
20260906023053 30 82 0.0 3.2 0.00 0.10 0.10 60 1013.2
20260906021554 30 71 0.0 3.2 0.00 0.10 0.10 61 1012.9
20260906020100 30 0 0.0 3.2 0.00 0.10 0.10 60 1012.9
20260906014554 30 0 0.0 3.2 0.00 0.10 0.10 60 1012.8
20260906013056 30 0 0.0 3.2 0.00 0.10 0.10 59 1012.6
20260906011604 31 0 0.0 3.2 0.00 0.10 0.10 60 1012.5
20260906010055 32 0 0.0 3.2 0.00 0.10 0.10 52 1012.4
20260906004601 33 0 0.0 0.0 0.00 0.10 0.10 49 1012.4
20260906003056 34 0 0.0 0.0 0.00 0.10 0.10 45 1012.4
20260906001554 35 0 0.0 3.2 0.00 0.10 0.10 44 1012.4
20260906000052 36 0 0.0 3.2 0.00 0.10 0.10 42 1012.4
20260905234557 37 202 0.0 3.2 0.00 0.10 0.10 40 1012.3
20260905233053 37 0 0.0 3.2 0.00 0.10 0.10 39 1012.4
20260905231553 37 207 0.0 3.2 0.00 0.10 0.10 38 1012.3
20260905230049 37 274 1.6 8.0 0.00 0.10 0.10 39 1012.2
20260905224554 37 205 1.6 4.8 0.00 0.10 0.10 39 1012.3
20260905223054 36 214 0.0 4.8 0.00 0.10 0.10 39 1012.3
20260905221544 36 241 1.6 4.8 0.00 0.10 0.10 38 1012.5
20260905220055 36 85 1.6 6.4 0.00 0.10 0.10 39 1012.7
20260905214557 37 93 1.6 4.8 0.00 0.10 0.10 37 1012.7
20260905213054 37 0 1.6 4.8 0.00 0.10 0.10 37 1012.9
20260905211607 37 203 1.6 8.0 0.00 0.10 0.10 38 1013.0
20260905204545 37 208 1.6 9.7 0.00 0.10 0.10 37 1013.3
20260905203052 37 148 1.6 9.7 0.00 0.10 0.10 37 1013.6
20260905201552 37 88 3.2 6.4 0.00 0.10 0.10 37 1013.8
20260905200057 37 207 1.6 6.4 0.00 0.10 0.10 41 1013.9
20260905194548 37 194 1.6 6.4 0.00 0.10 0.10 39 1014.0
20260905193056 37 196 1.6 9.7 0.00 0.10 0.10 43 1014.1
20260905191550 37 188 1.6 4.8 0.00 0.10 0.10 41 1014.2
20260905190059 37 291 1.6 8.0 0.00 0.10 0.10 41 1014.3
20260905184552 36 207 1.6 6.4 0.00 0.10 0.10 42 1014.4
20260905183114 36 210 3.2 9.7 0.00 0.10 0.10 43 1014.7
20260905181551 36 0 1.6 9.7 0.00 0.10 0.10 44 1015.0